Time,TemperatureF,DewpointF,PressureIn,WindDirection,WindDirectionDegrees,WindSpeedMPH,WindSpeedGustMPH,Humidity,HourlyPrecipIn,Conditions,Clouds,dailyrainin,SoftwareType,DateUTC
2013-09-03 00:01:00,69.0,66.6,29.79,NW,323,0.0,2.0,92,0.00,,---,0.00,VWS V13.01,2013-09-03 04:01:00,
2013-09-03 00:06:00,68.9,66.5,29.80,NW,323,0.0,2.0,92,0.00,,---,0.00,VWS V13.01,2013-09-03 04:06:00,
2013-09-03 00:11:00,68.6,66.2,29.80,NNW,330,1.0,4.0,92,0.00,,---,0.00,VWS V13.01,2013-09-03 04:11:00,
2013-09-03 00:16:00,68.3,65.6,29.80,WNW,296,0.0,5.0,91,0.00,,---,0.00,VWS V13.01,2013-09-03 04:16:00,
2013-09-03 00:21:00,68.0,65.3,29.80,West,281,0.0,2.0,91,0.00,,---,0.00,VWS V13.01,2013-09-03 04:21:00,
2013-09-03 00:26:00,67.7,65.0,29.79,WNW,286,4.0,4.0,91,0.00,,---,0.00,VWS V13.01,2013-09-03 04:26:00,
2013-09-03 00:31:00,67.5,64.8,29.79,WNW,294,0.0,1.0,91,0.00,,---,0.00,VWS V13.01,2013-09-03 04:31:00,
2013-09-03 00:36:00,67.3,64.6,29.79,WNW,294,1.0,2.0,91,0.00,,---,0.00,VWS V13.01,2013-09-03 04:36:00,
2013-09-03 00:41:00,67.1,64.4,29.79,WNW,294,0.0,1.0,91,0.00,,---,0.00,VWS V13.01,2013-09-03 04:41:00,
2013-09-03 00:46:00,67.0,64.3,29.79,WNW,294,0.0,1.0,91,0.00,,---,0.00,VWS V13.01,2013-09-03 04:46:00,
2013-09-03 00:51:00,66.8,64.4,29.79,WNW,294,0.0,1.0,92,0.00,,---,0.00,VWS V13.01,2013-09-03 04:51:00,
2013-09-03 00:56:00,66.7,64.3,29.79,WNW,294,0.0,1.0,92,0.00,,---,0.00,VWS V13.01,2013-09-03 04:56:00,
2013-09-03 01:01:00,66.6,64.5,29.79,WNW,294,0.0,0.0,93,0.00,,---,0.00,VWS V13.01,2013-09-03 05:01:00,
2013-09-03 01:06:00,66.5,64.4,29.79,WNW,294,0.0,0.0,93,0.00,,---,0.00,VWS V13.01,2013-09-03 05:06:00,
2013-09-03 01:11:00,66.5,64.4,29.79,WNW,294,0.0,0.0,93,0.00,,---,0.00,VWS V13.01,2013-09-03 05:11:00,
2013-09-03 01:16:00,66.5,64.7,29.79,WNW,294,0.0,1.0,94,0.00,,---,0.00,VWS V13.01,2013-09-03 05:16:00,
2013-09-03 01:21:00,66.6,64.8,29.79,WNW,294,0.0,0.0,94,0.00,,---,0.00,VWS V13.01,2013-09-03 05:21:00,
2013-09-03 01:26:00,66.7,64.9,29.79,WNW,294,0.0,1.0,94,0.00,,---,0.00,VWS V13.01,2013-09-03 05:26:00,
2013-09-03 01:31:00,66.7,64.9,29.79,WNW,294,0.0,1.0,94,0.00,,---,0.00,VWS V13.01,2013-09-03 05:31:00,
2013-09-03 01:36:00,66.6,64.8,29.79,WNW,294,0.0,1.0,94,0.00,,---,0.00,VWS V13.01,2013-09-03 05:36:00,
2013-09-03 01:41:00,66.5,64.7,29.79,WNW,294,0.0,1.0,94,0.00,,---,0.00,VWS V13.01,2013-09-03 05:41:00,
2013-09-03 01:46:00,66.4,64.6,29.79,WNW,294,0.0,1.0,94,0.00,,---,0.00,VWS V13.01,2013-09-03 05:46:00,
2013-09-03 01:51:00,66.2,64.4,29.79,WNW,294,0.0,0.0,94,0.00,,---,0.00,VWS V13.01,2013-09-03 05:51:00,
2013-09-03 01:56:00,66.1,64.3,29.79,WNW,294,0.0,1.0,94,0.00,,---,0.00,VWS V13.01,2013-09-03 05:56:00,
2013-09-03 02:01:00,65.9,64.1,29.79,WNW,294,0.0,0.0,94,0.00,,---,0.00,VWS V13.01,2013-09-03 06:01:00,
2013-09-03 02:06:00,65.8,64.0,29.79,WNW,294,0.0,1.0,94,0.00,,---,0.00,VWS V13.01,2013-09-03 06:06:00,
2013-09-03 02:11:00,65.7,63.9,29.80,WNW,294,1.0,1.0,94,0.00,,---,0.00,VWS V13.01,2013-09-03 06:11:00,
2013-09-03 02:16:00,65.6,64.1,29.80,WNW,294,0.0,1.0,95,0.00,,---,0.00,VWS V13.01,2013-09-03 06:16:00,
2013-09-03 02:21:00,65.4,63.6,29.80,WNW,294,0.0,0.0,94,0.00,,---,0.00,VWS V13.01,2013-09-03 06:21:00,
2013-09-03 02:26:00,65.3,63.5,29.80,WNW,294,0.0,1.0,94,0.00,,---,0.00,VWS V13.01,2013-09-03 06:26:00,
2013-09-03 02:31:00,65.1,63.3,29.80,WNW,294,0.0,0.0,94,0.00,,---,0.00,VWS V13.01,2013-09-03 06:31:00,
2013-09-03 02:36:00,64.9,63.1,29.80,WNW,294,0.0,0.0,94,0.00,,---,0.00,VWS V13.01,2013-09-03 06:36:00,
2013-09-03 02:41:00,64.7,63.2,29.79,WNW,294,0.0,0.0,95,0.00,,---,0.00,VWS V13.01,2013-09-03 06:41:00,
2013-09-03 02:46:00,64.6,62.8,29.79,WNW,294,0.0,1.0,94,0.00,,---,0.00,VWS V13.01,2013-09-03 06:46:00,
2013-09-03 02:51:00,64.4,62.6,29.79,WNW,294,0.0,1.0,94,0.00,,---,0.00,VWS V13.01,2013-09-03 06:51:00,
2013-09-03 02:56:00,64.3,62.8,29.79,WNW,294,0.0,1.0,95,0.00,,---,0.00,VWS V13.01,2013-09-03 06:56:00,
2013-09-03 03:01:00,64.1,62.6,29.79,WNW,294,0.0,0.0,95,0.00,,---,0.00,VWS V13.01,2013-09-03 07:01:00,
2013-09-03 03:06:00,63.9,62.1,29.78,WNW,294,0.0,0.0,94,0.00,,---,0.00,VWS V13.01,2013-09-03 07:06:00,
2013-09-03 03:11:00,63.8,62.3,29.78,WNW,294,0.0,0.0,95,0.00,,---,0.00,VWS V13.01,2013-09-03 07:11:00,
2013-09-03 03:16:00,63.7,62.2,29.78,WNW,294,0.0,0.0,95,0.00,,---,0.00,VWS V13.01,2013-09-03 07:16:00,
2013-09-03 03:21:00,63.4,62.0,29.79,WNW,294,0.0,0.0,95,0.00,,---,0.00,VWS V13.01,2013-09-03 07:21:00,
2013-09-03 03:26:00,63.2,61.8,29.79,WNW,294,0.0,0.0,95,0.00,,---,0.00,VWS V13.01,2013-09-03 07:26:00,
2013-09-03 03:31:00,63.1,61.7,29.79,WNW,294,0.0,0.0,95,0.00,,---,0.00,VWS V13.01,2013-09-03 07:31:00,
2013-09-03 03:36:00,63.1,61.7,29.79,WNW,294,0.0,0.0,95,0.00,,---,0.00,VWS V13.01,2013-09-03 07:36:00,
2013-09-03 03:41:00,63.0,61.5,29.79,WNW,294,0.0,0.0,95,0.00,,---,0.00,VWS V13.01,2013-09-03 07:41:00,
2013-09-03 03:46:00,62.8,61.3,29.79,WNW,294,0.0,0.0,95,0.00,,---,0.00,VWS V13.01,2013-09-03 07:46:00,
2013-09-03 03:51:00,62.6,61.2,29.79,WNW,294,0.0,0.0,95,0.00,,---,0.00,VWS V13.01,2013-09-03 07:51:00,
2013-09-03 03:56:00,62.5,61.0,29.79,WNW,294,0.0,0.0,95,0.00,,---,0.00,VWS V13.01,2013-09-03 07:56:00,
2013-09-03 04:01:00,62.4,61.0,29.79,WNW,294,0.0,0.0,95,0.00,,---,0.00,VWS V13.01,2013-09-03 08:01:00,
2013-09-03 04:06:00,62.3,61.2,29.79,WNW,294,0.0,0.0,96,0.00,,---,0.00,VWS V13.01,2013-09-03 08:06:00,
2013-09-03 04:11:00,62.3,61.2,29.79,WNW,294,0.0,1.0,96,0.00,,---,0.00,VWS V13.01,2013-09-03 08:11:00,
2013-09-03 04:16:00,62.3,61.2,29.79,WNW,294,0.0,1.0,96,0.00,,---,0.00,VWS V13.01,2013-09-03 08:16:00,
2013-09-03 04:21:00,62.4,61.2,29.80,WNW,294,1.0,2.0,96,0.00,,---,0.00,VWS V13.01,2013-09-03 08:21:00,
2013-09-03 04:26:00,62.6,61.5,29.80,SSW,212,1.0,3.0,96,0.00,,---,0.00,VWS V13.01,2013-09-03 08:26:00,
2013-09-03 04:31:00,62.8,61.9,29.80,SSW,212,2.0,3.0,97,0.00,,---,0.00,VWS V13.01,2013-09-03 08:31:00,
2013-09-03 04:36:00,63.0,62.1,29.80,SSW,212,1.0,3.0,97,0.00,,---,0.00,VWS V13.01,2013-09-03 08:36:00,
2013-09-03 04:41:00,63.1,62.2,29.80,SSW,212,1.0,3.0,97,0.00,,---,0.00,VWS V13.01,2013-09-03 08:41:00,
2013-09-03 04:46:00,63.2,62.3,29.80,SSW,212,2.0,3.0,97,0.00,,---,0.00,VWS V13.01,2013-09-03 08:46:00,
2013-09-03 04:51:00,63.3,62.4,29.80,SSW,212,1.0,2.0,97,0.00,,---,0.00,VWS V13.01,2013-09-03 08:51:00,
2013-09-03 04:56:00,63.4,62.5,29.80,SSW,212,1.0,2.0,97,0.00,,---,0.00,VWS V13.01,2013-09-03 08:56:00,
2013-09-03 05:01:00,63.4,62.5,29.81,SW,224,1.0,3.0,97,0.00,,---,0.00,VWS V13.01,2013-09-03 09:01:00,
2013-09-03 05:06:00,63.5,62.6,29.81,SW,223,0.0,3.0,97,0.00,,---,0.00,VWS V13.01,2013-09-03 09:06:00,
2013-09-03 05:11:00,63.5,62.6,29.81,SW,223,2.0,3.0,97,0.00,,---,0.00,VWS V13.01,2013-09-03 09:11:00,
2013-09-03 05:16:00,63.6,62.7,29.81,SW,223,3.0,3.0,97,0.00,,---,0.00,VWS V13.01,2013-09-03 09:16:00,
2013-09-03 05:21:00,63.6,62.7,29.81,SW,223,2.0,2.0,97,0.00,,---,0.00,VWS V13.01,2013-09-03 09:21:00,
2013-09-03 05:26:00,63.6,62.7,29.82,SW,223,0.0,3.0,97,0.00,,---,0.00,VWS V13.01,2013-09-03 09:26:00,
2013-09-03 05:31:00,63.7,62.8,29.82,SW,223,2.0,2.0,97,0.00,,---,0.00,VWS V13.01,2013-09-03 09:31:00,
2013-09-03 05:36:00,63.6,62.7,29.82,SW,223,2.0,3.0,97,0.00,,---,0.00,VWS V13.01,2013-09-03 09:36:00,
2013-09-03 05:41:00,63.5,62.6,29.82,SW,223,1.0,2.0,97,0.00,,---,0.00,VWS V13.01,2013-09-03 09:41:00,
2013-09-03 05:46:00,63.5,62.6,29.82,SW,223,1.0,3.0,97,0.00,,---,0.00,VWS V13.01,2013-09-03 09:46:00,
2013-09-03 05:51:00,63.4,62.5,29.82,SW,223,0.0,1.0,97,0.00,,---,0.00,VWS V13.01,2013-09-03 09:51:00,
2013-09-03 05:56:00,63.3,62.4,29.83,SW,223,0.0,2.0,97,0.00,,---,0.00,VWS V13.01,2013-09-03 09:56:00,
2013-09-03 06:01:00,63.3,62.4,29.83,SW,223,0.0,1.0,97,0.00,,---,0.00,VWS V13.01,2013-09-03 10:01:00,
2013-09-03 06:06:00,63.2,62.3,29.83,SW,223,0.0,2.0,97,0.00,,---,0.00,VWS V13.01,2013-09-03 10:06:00,
2013-09-03 06:11:00,63.2,62.3,29.83,SW,223,0.0,1.0,97,0.00,,---,0.00,VWS V13.01,2013-09-03 10:11:00,
2013-09-03 06:16:00,63.1,62.2,29.83,SW,223,1.0,2.0,97,0.00,,---,0.00,VWS V13.01,2013-09-03 10:16:00,
2013-09-03 06:21:00,63.0,62.1,29.83,SW,223,0.0,1.0,97,0.00,,---,0.00,VWS V13.01,2013-09-03 10:21:00,
2013-09-03 06:26:00,62.9,61.8,29.83,SW,223,0.0,1.0,96,0.00,,---,0.00,VWS V13.01,2013-09-03 10:26:00,
2013-09-03 06:31:00,62.7,61.5,29.83,SW,223,0.0,0.0,96,0.00,,---,0.00,VWS V13.01,2013-09-03 10:31:00,
2013-09-03 06:36:00,62.5,61.3,29.83,SW,223,0.0,0.0,96,0.00,,---,0.00,VWS V13.01,2013-09-03 10:36:00,
2013-09-03 06:41:00,62.4,61.2,29.83,SW,223,0.0,0.0,96,0.00,,---,0.00,VWS V13.01,2013-09-03 10:41:00,
2013-09-03 06:46:00,62.2,61.0,29.83,SW,223,0.0,0.0,96,0.00,,---,0.00,VWS V13.01,2013-09-03 10:46:00,
2013-09-03 06:51:00,62.2,61.0,29.83,SW,223,0.0,1.0,96,0.01,,---,0.01,VWS V13.01,2013-09-03 10:51:00,
2013-09-03 06:56:00,62.2,61.3,29.83,SW,223,0.0,1.0,97,0.01,,---,0.01,VWS V13.01,2013-09-03 10:56:00,
2013-09-03 07:01:00,62.2,61.3,29.83,SW,223,0.0,0.0,97,0.01,,---,0.01,VWS V13.01,2013-09-03 11:01:00,
2013-09-03 07:06:00,62.2,61.3,29.83,SW,223,0.0,2.0,97,0.01,,---,0.01,VWS V13.01,2013-09-03 11:06:00,
2013-09-03 07:11:00,62.2,61.3,29.84,SW,223,0.0,1.0,97,0.01,,---,0.01,VWS V13.01,2013-09-03 11:11:00,
2013-09-03 07:16:00,62.3,61.4,29.84,SW,223,0.0,1.0,97,0.01,,---,0.01,VWS V13.01,2013-09-03 11:16:00,
2013-09-03 07:21:00,62.5,61.6,29.84,SW,223,1.0,2.0,97,0.01,,---,0.01,VWS V13.01,2013-09-03 11:21:00,
2013-09-03 07:26:00,62.6,61.7,29.84,SW,223,0.0,2.0,97,0.01,,---,0.01,VWS V13.01,2013-09-03 11:26:00,
2013-09-03 07:31:00,62.7,61.8,29.85,SW,223,1.0,1.0,97,0.01,,---,0.01,VWS V13.01,2013-09-03 11:31:00,
2013-09-03 07:36:00,62.8,61.9,29.85,SW,223,0.0,1.0,97,0.01,,---,0.01,VWS V13.01,2013-09-03 11:36:00,
2013-09-03 07:41:00,62.9,62.0,29.85,SW,223,0.0,0.0,97,0.01,,---,0.01,VWS V13.01,2013-09-03 11:41:00,
2013-09-03 07:46:00,62.9,62.0,29.85,SW,223,0.0,1.0,97,0.01,,---,0.01,VWS V13.01,2013-09-03 11:46:00,
2013-09-03 07:51:00,62.9,62.0,29.85,SW,223,0.0,1.0,97,0.00,,---,0.01,VWS V13.01,2013-09-03 11:51:00,
2013-09-03 07:56:00,63.0,62.1,29.86,SW,223,1.0,2.0,97,0.00,,---,0.01,VWS V13.01,2013-09-03 11:56:00,
2013-09-03 08:01:00,63.0,62.1,29.86,WNW,288,0.0,5.0,97,0.00,,---,0.01,VWS V13.01,2013-09-03 12:01:00,
2013-09-03 08:06:00,63.0,62.1,29.87,NW,319,0.0,5.0,97,0.00,,---,0.01,VWS V13.01,2013-09-03 12:06:00,
2013-09-03 08:11:00,62.9,62.0,29.87,NNW,331,2.0,4.0,97,0.00,,---,0.01,VWS V13.01,2013-09-03 12:11:00,
2013-09-03 08:16:00,62.9,62.0,29.87,NNE,28,4.0,4.0,97,0.00,,---,0.01,VWS V13.01,2013-09-03 12:16:00,
2013-09-03 08:22:00,62.9,62.0,29.87,North,360,2.0,5.0,97,0.00,,---,0.01,VWS V13.01,2013-09-03 12:22:00,
2013-09-03 08:27:00,63.0,62.1,29.87,NNE,22,1.0,5.0,97,0.00,,---,0.01,VWS V13.01,2013-09-03 12:27:00,
2013-09-03 08:32:00,63.0,62.1,29.87,NNE,26,0.0,5.0,97,0.00,,---,0.01,VWS V13.01,2013-09-03 12:32:00,
2013-09-03 08:37:00,63.0,61.8,29.88,North,5,1.0,5.0,96,0.00,,---,0.01,VWS V13.01,2013-09-03 12:37:00,
2013-09-03 08:42:00,63.1,62.2,29.88,North,355,0.0,4.0,97,0.00,,---,0.01,VWS V13.01,2013-09-03 12:42:00,
2013-09-03 08:47:00,63.3,62.4,29.88,WNW,300,3.0,4.0,97,0.00,,---,0.01,VWS V13.01,2013-09-03 12:47:00,
2013-09-03 08:52:00,63.3,62.1,29.88,NW,306,1.0,7.0,96,0.00,,---,0.01,VWS V13.01,2013-09-03 12:52:00,
2013-09-03 08:57:00,63.2,62.0,29.88,North,360,4.0,7.0,96,0.00,,---,0.01,VWS V13.01,2013-09-03 12:57:00,
2013-09-03 09:02:00,63.2,61.8,29.88,North,5,2.0,6.0,95,0.00,,---,0.01,VWS V13.01,2013-09-03 13:02:00,
2013-09-03 09:07:00,63.4,62.0,29.88,NNW,336,0.0,6.0,95,0.00,,---,0.01,VWS V13.01,2013-09-03 13:07:00,
2013-09-03 09:12:00,64.0,62.5,29.88,West,281,2.0,5.0,95,0.00,,---,0.01,VWS V13.01,2013-09-03 13:12:00,
2013-09-03 09:17:00,64.3,62.5,29.88,West,274,1.0,6.0,94,0.00,,---,0.01,VWS V13.01,2013-09-03 13:17:00,
2013-09-03 09:22:00,64.7,62.3,29.88,NNW,327,0.0,6.0,92,0.00,,---,0.01,VWS V13.01,2013-09-03 13:22:00,
2013-09-03 09:27:00,64.7,61.7,29.89,NNW,327,1.0,6.0,90,0.00,,---,0.01,VWS V13.01,2013-09-03 13:27:00,
2013-09-03 09:32:00,65.1,62.1,29.89,NNW,333,1.0,3.0,90,0.00,,---,0.01,VWS V13.01,2013-09-03 13:32:00,
2013-09-03 09:37:00,65.5,62.2,29.89,NNW,333,0.0,3.0,89,0.00,,---,0.01,VWS V13.01,2013-09-03 13:37:00,
2013-09-03 09:42:00,65.5,61.9,29.89,West,277,4.0,5.0,88,0.00,,---,0.01,VWS V13.01,2013-09-03 13:42:00,
2013-09-03 09:47:00,65.2,61.2,29.89,NNW,346,2.0,5.0,87,0.00,,---,0.01,VWS V13.01,2013-09-03 13:47:00,
2013-09-03 09:52:00,65.4,61.8,29.89,NW,309,2.0,3.0,88,0.00,,---,0.01,VWS V13.01,2013-09-03 13:52:00,
2013-09-03 09:57:00,65.7,61.7,29.89,NNW,339,2.0,3.0,87,0.00,,---,0.01,VWS V13.01,2013-09-03 13:57:00,
2013-09-03 10:02:00,66.0,62.0,29.89,WNW,299,3.0,5.0,87,0.00,,---,0.01,VWS V13.01,2013-09-03 14:02:00,
2013-09-03 10:07:00,66.5,62.5,29.89,WSW,251,1.0,5.0,87,0.00,,---,0.01,VWS V13.01,2013-09-03 14:07:00,
2013-09-03 10:12:00,66.5,61.5,29.90,NNW,333,4.0,9.0,84,0.00,,---,0.01,VWS V13.01,2013-09-03 14:12:00,
2013-09-03 10:17:00,66.1,61.1,29.89,North,5,2.0,9.0,84,0.00,,---,0.01,VWS V13.01,2013-09-03 14:17:00,
2013-09-03 10:22:00,66.0,62.0,29.90,NW,321,1.0,5.0,87,0.00,,---,0.01,VWS V13.01,2013-09-03 14:22:00,
2013-09-03 10:27:00,66.5,62.2,29.90,West,263,5.0,7.0,86,0.00,,---,0.01,VWS V13.01,2013-09-03 14:27:00,
2013-09-03 10:32:00,67.1,62.5,29.89,NNW,334,4.0,7.0,85,0.00,,---,0.01,VWS V13.01,2013-09-03 14:32:00,
2013-09-03 10:37:00,67.7,62.4,29.89,NNW,327,3.0,9.0,83,0.00,,---,0.01,VWS V13.01,2013-09-03 14:37:00,
2013-09-03 10:42:00,67.6,61.2,29.89,NW,309,0.0,6.0,80,0.00,,---,0.01,VWS V13.01,2013-09-03 14:42:00,
2013-09-03 10:47:00,67.9,61.5,29.89,WNW,284,5.0,8.0,80,0.00,,---,0.01,VWS V13.01,2013-09-03 14:47:00,
2013-09-03 10:52:00,68.4,62.0,29.89,SW,215,3.0,4.0,80,0.00,,---,0.01,VWS V13.01,2013-09-03 14:52:00,
2013-09-03 10:57:00,69.0,60.8,29.89,WNW,299,6.0,9.0,75,0.00,,---,0.01,VWS V13.01,2013-09-03 14:57:00,
2013-09-03 11:02:00,69.1,61.2,29.89,SW,227,4.0,8.0,76,0.00,,---,0.01,VWS V13.01,2013-09-03 15:02:00,
2013-09-03 11:07:00,69.5,61.2,29.89,WNW,300,2.0,9.0,75,0.00,,---,0.01,VWS V13.01,2013-09-03 15:07:00,
2013-09-03 11:12:00,69.6,61.3,29.90,NNW,327,2.0,8.0,75,0.00,,---,0.01,VWS V13.01,2013-09-03 15:12:00,
2013-09-03 11:17:00,69.3,61.0,29.90,North,9,3.0,13.0,75,0.00,,---,0.01,VWS V13.01,2013-09-03 15:17:00,
2013-09-03 11:22:00,68.9,60.3,29.90,West,268,3.0,9.0,74,0.00,,---,0.01,VWS V13.01,2013-09-03 15:22:00,
2013-09-03 11:27:00,68.1,59.9,29.90,West,262,2.0,9.0,75,0.00,,---,0.01,VWS V13.01,2013-09-03 15:27:00,
2013-09-03 11:32:00,68.2,60.3,29.90,WNW,284,6.0,10.0,76,0.00,,---,0.01,VWS V13.01,2013-09-03 15:32:00,
2013-09-03 11:37:00,68.8,60.9,29.90,NW,306,1.0,10.0,76,0.00,,---,0.01,VWS V13.01,2013-09-03 15:37:00,
2013-09-03 11:42:00,69.6,61.0,29.90,NW,307,4.0,8.0,74,0.00,,---,0.01,VWS V13.01,2013-09-03 15:42:00,
2013-09-03 11:47:00,69.6,59.4,29.90,NNW,338,3.0,13.0,70,0.00,,---,0.01,VWS V13.01,2013-09-03 15:47:00,
2013-09-03 11:52:00,69.2,59.0,29.90,NNW,344,2.0,9.0,70,0.00,,---,0.01,VWS V13.01,2013-09-03 15:52:00,
2013-09-03 11:57:00,69.0,59.6,29.90,West,270,4.0,9.0,72,0.00,,---,0.01,VWS V13.01,2013-09-03 15:57:00,
2013-09-03 12:02:00,69.5,59.3,29.90,West,264,3.0,13.0,70,0.00,,---,0.01,VWS V13.01,2013-09-03 16:02:00,
2013-09-03 12:07:00,70.1,59.1,29.90,NNW,330,6.0,13.0,68,0.00,,---,0.01,VWS V13.01,2013-09-03 16:07:00,
2013-09-03 12:12:00,69.9,58.9,29.90,West,279,4.0,14.0,68,0.00,,---,0.01,VWS V13.01,2013-09-03 16:12:00,
2013-09-03 12:17:00,69.9,58.5,29.90,NNW,333,3.0,14.0,67,0.00,,---,0.01,VWS V13.01,2013-09-03 16:17:00,
2013-09-03 12:22:00,70.1,59.1,29.91,North,355,4.0,11.0,68,0.00,,---,0.01,VWS V13.01,2013-09-03 16:22:00,
2013-09-03 12:27:00,70.4,57.2,29.90,WSW,248,10.0,15.0,63,0.00,,---,0.01,VWS V13.01,2013-09-03 16:27:00,
2013-09-03 12:32:00,70.2,58.7,29.91,NW,313,5.0,7.0,67,0.00,,---,0.01,VWS V13.01,2013-09-03 16:32:00,
2013-09-03 12:37:00,70.3,57.6,29.91,NW,305,6.0,15.0,64,0.00,,---,0.01,VWS V13.01,2013-09-03 16:37:00,
2013-09-03 12:42:00,70.7,57.9,29.91,WSW,248,9.0,9.0,64,0.00,,---,0.01,VWS V13.01,2013-09-03 16:42:00,
2013-09-03 12:47:00,71.0,57.8,29.90,West,271,4.0,9.0,63,0.00,,---,0.01,VWS V13.01,2013-09-03 16:47:00,
2013-09-03 12:52:00,71.3,58.1,29.90,WNW,300,2.0,9.0,63,0.00,,---,0.01,VWS V13.01,2013-09-03 16:52:00,
2013-09-03 12:57:00,71.0,56.9,29.91,WNW,298,0.0,10.0,61,0.00,,---,0.01,VWS V13.01,2013-09-03 16:57:00,
2013-09-03 13:02:00,70.6,57.8,29.91,NW,312,2.0,5.0,64,0.00,,---,0.01,VWS V13.01,2013-09-03 17:02:00,
2013-09-03 13:07:00,70.6,56.5,29.91,NNW,339,1.0,9.0,61,0.00,,---,0.01,VWS V13.01,2013-09-03 17:07:00,
2013-09-03 13:12:00,70.2,57.0,29.90,NW,315,4.0,8.0,63,0.00,,---,0.01,VWS V13.01,2013-09-03 17:12:00,
2013-09-03 13:17:00,70.2,57.5,29.90,West,275,10.0,11.0,64,0.00,,---,0.01,VWS V13.01,2013-09-03 17:17:00,
2013-09-03 13:22:00,70.7,58.8,29.90,WNW,290,2.0,9.0,66,0.00,,---,0.01,VWS V13.01,2013-09-03 17:22:00,
2013-09-03 13:27:00,71.1,58.8,29.90,West,280,5.0,12.0,65,0.00,,---,0.01,VWS V13.01,2013-09-03 17:27:00,
2013-09-03 13:32:00,71.3,56.7,29.90,West,272,3.0,6.0,60,0.00,,---,0.01,VWS V13.01,2013-09-03 17:32:00,
2013-09-03 13:37:00,71.5,57.8,29.90,WNW,290,8.0,10.0,62,0.00,,---,0.01,VWS V13.01,2013-09-03 17:37:00,
2013-09-03 13:42:00,71.8,58.1,29.90,NNW,338,3.0,6.0,62,0.00,,---,0.01,VWS V13.01,2013-09-03 17:42:00,
2013-09-03 13:47:00,72.1,57.0,29.90,WNW,296,5.0,12.0,59,0.00,,---,0.01,VWS V13.01,2013-09-03 17:47:00,
2013-09-03 13:52:00,71.9,57.7,29.90,NNW,331,3.0,10.0,61,0.00,,---,0.01,VWS V13.01,2013-09-03 17:52:00,
2013-09-03 13:57:00,71.3,56.7,29.91,West,281,3.0,10.0,60,0.00,,---,0.01,VWS V13.01,2013-09-03 17:57:00,
2013-09-03 14:02:00,71.1,56.5,29.90,NNW,331,1.0,8.0,60,0.00,,---,0.01,VWS V13.01,2013-09-03 18:02:00,
2013-09-03 14:07:00,71.3,58.5,29.90,WSW,247,3.0,8.0,64,0.00,,---,0.01,VWS V13.01,2013-09-03 18:07:00,
2013-09-03 14:12:00,72.2,57.6,29.90,NW,308,9.0,13.0,60,0.00,,---,0.01,VWS V13.01,2013-09-03 18:12:00,
2013-09-03 14:17:00,72.4,56.8,29.90,West,272,4.0,13.0,58,0.00,,---,0.01,VWS V13.01,2013-09-03 18:17:00,
2013-09-03 14:22:00,72.4,56.8,29.90,NW,306,2.0,11.0,58,0.00,,---,0.01,VWS V13.01,2013-09-03 18:22:00,
2013-09-03 14:27:00,71.7,56.2,29.90,North,9,6.0,17.0,58,0.00,,---,0.01,VWS V13.01,2013-09-03 18:27:00,
2013-09-03 14:32:00,71.2,58.0,29.90,NNE,24,5.0,7.0,63,0.00,,---,0.01,VWS V13.01,2013-09-03 18:32:00,
2013-09-03 14:37:00,71.7,60.2,29.90,NW,313,9.0,9.0,67,0.00,,---,0.01,VWS V13.01,2013-09-03 18:37:00,
2013-09-03 14:42:00,72.0,58.3,29.89,NNW,328,4.0,12.0,62,0.00,,---,0.01,VWS V13.01,2013-09-03 18:42:00,
2013-09-03 14:47:00,72.5,59.6,29.90,NNE,30,4.0,12.0,64,0.00,,---,0.01,VWS V13.01,2013-09-03 18:47:00,
2013-09-03 14:52:00,73.1,58.4,29.90,NNW,347,4.0,9.0,60,0.00,,---,0.01,VWS V13.01,2013-09-03 18:52:00,
2013-09-03 14:57:00,72.9,58.7,29.90,North,5,5.0,11.0,61,0.00,,---,0.01,VWS V13.01,2013-09-03 18:57:00,
2013-09-03 15:02:00,72.9,58.7,29.90,NW,317,4.0,9.0,61,0.00,,---,0.01,VWS V13.01,2013-09-03 19:02:00,
2013-09-03 15:07:00,73.3,57.7,29.90,West,264,5.0,9.0,58,0.00,,---,0.01,VWS V13.01,2013-09-03 19:07:00,
2013-09-03 15:12:00,73.2,56.6,29.90,NW,314,2.0,7.0,56,0.00,,---,0.01,VWS V13.01,2013-09-03 19:12:00,
2013-09-03 15:17:00,72.7,58.0,29.90,West,267,3.0,10.0,60,0.00,,---,0.01,VWS V13.01,2013-09-03 19:17:00,
2013-09-03 15:22:00,72.3,57.7,29.90,North,355,1.0,6.0,60,0.00,,---,0.01,VWS V13.01,2013-09-03 19:22:00,
2013-09-03 15:27:00,71.6,58.3,29.90,NNW,341,5.0,10.0,63,0.00,,---,0.01,VWS V13.01,2013-09-03 19:27:00,
2013-09-03 15:32:00,71.6,59.2,29.90,NNE,14,5.0,6.0,65,0.00,,---,0.01,VWS V13.01,2013-09-03 19:32:00,
2013-09-03 15:37:00,71.9,59.5,29.90,NW,313,0.0,10.0,65,0.00,,---,0.01,VWS V13.01,2013-09-03 19:37:00,
2013-09-03 15:42:00,72.6,59.3,29.90,NW,310,0.0,7.0,63,0.00,,---,0.01,VWS V13.01,2013-09-03 19:42:00,
2013-09-03 15:47:00,73.1,58.4,29.89,WNW,284,1.0,10.0,60,0.00,,---,0.01,VWS V13.01,2013-09-03 19:47:00,
2013-09-03 15:52:00,73.5,58.8,29.89,WNW,295,4.0,10.0,60,0.00,,---,0.01,VWS V13.01,2013-09-03 19:52:00,
2013-09-03 15:57:00,73.6,57.4,29.89,NW,307,2.0,12.0,57,0.00,,---,0.01,VWS V13.01,2013-09-03 19:57:00,
2013-09-03 16:02:00,73.3,58.6,29.90,WNW,296,2.0,8.0,60,0.00,,---,0.01,VWS V13.01,2013-09-03 20:02:00,
2013-09-03 16:07:00,72.7,58.9,29.90,NNW,343,6.0,11.0,62,0.00,,---,0.01,VWS V13.01,2013-09-03 20:07:00,
2013-09-03 16:12:00,72.7,58.9,29.90,NNE,25,5.0,8.0,62,0.00,,---,0.01,VWS V13.01,2013-09-03 20:12:00,
2013-09-03 16:17:00,72.3,58.6,29.90,NNE,15,6.0,9.0,62,0.00,,---,0.01,VWS V13.01,2013-09-03 20:17:00,
2013-09-03 16:22:00,72.0,58.3,29.91,NW,322,4.0,8.0,62,0.00,,---,0.01,VWS V13.01,2013-09-03 20:22:00,
2013-09-03 16:27:00,71.8,58.5,29.91,NW,325,5.0,11.0,63,0.00,,---,0.01,VWS V13.01,2013-09-03 20:27:00,
2013-09-03 16:32:00,71.7,58.9,29.91,NW,323,1.0,4.0,64,0.00,,---,0.01,VWS V13.01,2013-09-03 20:32:00,
2013-09-03 16:37:00,71.5,58.7,29.91,NW,304,2.0,6.0,64,0.00,,---,0.01,VWS V13.01,2013-09-03 20:37:00,
2013-09-03 16:42:00,71.2,58.4,29.91,NNE,22,5.0,8.0,64,0.00,,---,0.01,VWS V13.01,2013-09-03 20:42:00,
2013-09-03 16:47:00,71.2,58.8,29.91,North,355,1.0,10.0,65,0.00,,---,0.01,VWS V13.01,2013-09-03 20:47:00,
2013-09-03 16:52:00,71.4,59.5,29.90,WNW,290,0.0,6.0,66,0.00,,---,0.01,VWS V13.01,2013-09-03 20:52:00,
2013-09-03 16:57:00,71.2,58.8,29.91,NNE,19,4.0,9.0,65,0.00,,---,0.01,VWS V13.01,2013-09-03 20:57:00,
2013-09-03 17:02:00,70.9,59.4,29.91,NNW,337,4.0,9.0,67,0.00,,---,0.01,VWS V13.01,2013-09-03 21:02:00,
2013-09-03 17:07:00,70.7,58.8,29.91,WNW,299,3.0,11.0,66,0.00,,---,0.01,VWS V13.01,2013-09-03 21:07:00,
2013-09-03 17:12:00,70.4,58.5,29.91,NNW,341,10.0,10.0,66,0.00,,---,0.01,VWS V13.01,2013-09-03 21:12:00,
2013-09-03 17:17:00,70.1,58.2,29.91,WNW,294,2.0,10.0,66,0.00,,---,0.01,VWS V13.01,2013-09-03 21:17:00,
2013-09-03 17:22:00,69.7,58.3,29.92,WNW,303,4.0,7.0,67,0.00,,---,0.01,VWS V13.01,2013-09-03 21:22:00,
2013-09-03 17:27:00,69.5,58.5,29.92,North,351,3.0,7.0,68,0.00,,---,0.01,VWS V13.01,2013-09-03 21:27:00,
2013-09-03 17:32:00,69.3,58.7,29.92,WNW,286,0.0,7.0,69,0.00,,---,0.01,VWS V13.01,2013-09-03 21:32:00,
2013-09-03 17:37:00,69.2,58.2,29.92,WNW,297,0.0,7.0,68,0.00,,---,0.01,VWS V13.01,2013-09-03 21:37:00,
2013-09-03 17:42:00,69.3,58.7,29.92,NW,315,2.0,7.0,69,0.00,,---,0.01,VWS V13.01,2013-09-03 21:42:00,
2013-09-03 17:47:00,69.1,58.5,29.92,NNW,335,3.0,8.0,69,0.00,,---,0.01,VWS V13.01,2013-09-03 21:47:00,
2013-09-03 17:52:00,68.7,58.5,29.93,NW,321,4.0,7.0,70,0.00,,---,0.01,VWS V13.01,2013-09-03 21:52:00,
2013-09-03 17:57:00,68.5,58.3,29.93,North,5,5.0,7.0,70,0.00,,---,0.01,VWS V13.01,2013-09-03 21:57:00,
2013-09-03 18:02:00,68.3,58.5,29.93,North,355,6.0,6.0,71,0.00,,---,0.01,VWS V13.01,2013-09-03 22:02:00,
2013-09-03 18:07:00,68.0,57.9,29.93,NW,309,1.0,9.0,70,0.00,,---,0.01,VWS V13.01,2013-09-03 22:07:00,
2013-09-03 18:12:00,67.7,58.0,29.93,WNW,298,0.0,8.0,71,0.00,,---,0.01,VWS V13.01,2013-09-03 22:12:00,
2013-09-03 18:17:00,67.5,57.8,29.93,NNW,344,4.0,9.0,71,0.00,,---,0.01,VWS V13.01,2013-09-03 22:17:00,
2013-09-03 18:22:00,67.3,57.6,29.93,NNE,14,4.0,8.0,71,0.00,,---,0.01,VWS V13.01,2013-09-03 22:22:00,
2013-09-03 18:27:00,67.1,57.4,29.93,NNW,346,3.0,8.0,71,0.00,,---,0.01,VWS V13.01,2013-09-03 22:27:00,
2013-09-03 18:32:00,67.0,57.3,29.93,NNW,339,4.0,8.0,71,0.00,,---,0.01,VWS V13.01,2013-09-03 22:32:00,
2013-09-03 18:37:00,66.8,57.5,29.93,NNW,329,3.0,8.0,72,0.00,,---,0.01,VWS V13.01,2013-09-03 22:37:00,
2013-09-03 18:42:00,66.6,57.7,29.93,NNW,341,1.0,8.0,73,0.00,,---,0.01,VWS V13.01,2013-09-03 22:42:00,
2013-09-03 18:47:00,66.4,58.2,29.93,NNW,346,3.0,8.0,75,0.00,,---,0.01,VWS V13.01,2013-09-03 22:47:00,
2013-09-03 18:52:00,66.3,58.2,29.94,NNW,348,3.0,6.0,75,0.00,,---,0.01,VWS V13.01,2013-09-03 22:52:00,
2013-09-03 18:57:00,66.2,58.0,29.93,NNE,12,3.0,6.0,75,0.00,,---,0.01,VWS V13.01,2013-09-03 22:57:00,
2013-09-03 19:02:00,66.1,58.0,29.94,North,360,1.0,5.0,75,0.00,,---,0.01,VWS V13.01,2013-09-03 23:02:00,
2013-09-03 19:07:00,66.0,58.2,29.94,North,9,2.0,5.0,76,0.00,,---,0.01,VWS V13.01,2013-09-03 23:07:00,
2013-09-03 19:12:00,65.9,58.1,29.94,North,9,5.0,7.0,76,0.00,,---,0.01,VWS V13.01,2013-09-03 23:12:00,
2013-09-03 19:17:00,65.7,57.9,29.94,NNW,343,6.0,7.0,76,0.00,,---,0.01,VWS V13.01,2013-09-03 23:17:00,
2013-09-03 19:22:00,65.5,57.7,29.94,NNW,332,1.0,7.0,76,0.00,,---,0.01,VWS V13.01,2013-09-03 23:22:00,
2013-09-03 19:27:00,65.3,57.5,29.94,North,351,3.0,7.0,76,0.00,,---,0.01,VWS V13.01,2013-09-03 23:27:00,
2013-09-03 19:32:00,65.1,57.4,29.94,NNW,344,3.0,7.0,76,0.00,,---,0.01,VWS V13.01,2013-09-03 23:32:00,
2013-09-03 19:37:00,65.0,57.6,29.95,NNW,347,5.0,7.0,77,0.00,,---,0.01,VWS V13.01,2013-09-03 23:37:00,
2013-09-03 19:42:00,64.8,57.4,29.95,NW,309,3.0,5.0,77,0.00,,---,0.01,VWS V13.01,2013-09-03 23:42:00,
2013-09-03 19:47:00,64.7,57.3,29.95,NNW,331,0.0,6.0,77,0.00,,---,0.01,VWS V13.01,2013-09-03 23:47:00,
2013-09-03 19:52:00,64.6,57.6,29.96,NW,319,0.0,3.0,78,0.00,,---,0.01,VWS V13.01,2013-09-03 23:52:00,
2013-09-03 19:57:00,64.5,57.5,29.96,NNW,329,1.0,6.0,78,0.00,,---,0.01,VWS V13.01,2013-09-03 23:57:00,
2013-09-03 20:02:00,64.5,57.5,29.96,NNW,346,3.0,5.0,78,0.00,,---,0.01,VWS V13.01,2013-09-04 00:02:00,
2013-09-03 20:07:00,64.4,57.4,29.97,North,5,1.0,5.0,78,0.00,,---,0.01,VWS V13.01,2013-09-04 00:07:00,
2013-09-03 20:12:00,64.3,57.7,29.97,NNW,346,5.0,5.0,79,0.00,,---,0.01,VWS V13.01,2013-09-04 00:12:00,
2013-09-03 20:17:00,64.2,57.2,29.97,NW,321,1.0,5.0,78,0.00,,---,0.01,VWS V13.01,2013-09-04 00:17:00,
2013-09-03 20:22:00,64.1,57.5,29.98,NW,325,1.0,5.0,79,0.00,,---,0.01,VWS V13.01,2013-09-04 00:22:00,
2013-09-03 20:27:00,64.1,57.5,29.98,NW,324,3.0,6.0,79,0.00,,---,0.01,VWS V13.01,2013-09-04 00:27:00,
2013-09-03 20:32:00,64.0,57.4,29.98,NNW,344,3.0,8.0,79,0.00,,---,0.01,VWS V13.01,2013-09-04 00:32:00,
2013-09-03 20:37:00,63.8,57.5,29.98,North,360,2.0,8.0,80,0.00,,---,0.01,VWS V13.01,2013-09-04 00:37:00,
2013-09-03 20:42:00,63.7,57.4,29.98,North,355,5.0,6.0,80,0.00,,---,0.01,VWS V13.01,2013-09-04 00:42:00,
2013-09-03 20:47:00,63.6,57.3,29.98,North,5,3.0,7.0,80,0.00,,---,0.01,VWS V13.01,2013-09-04 00:47:00,
2013-09-03 20:52:00,63.5,57.6,29.99,North,360,0.0,3.0,81,0.00,,---,0.01,VWS V13.01,2013-09-04 00:52:00,
2013-09-03 20:57:00,63.5,57.2,29.99,North,355,4.0,5.0,80,0.00,,---,0.01,VWS V13.01,2013-09-04 00:57:00,
2013-09-03 21:02:00,63.4,57.5,29.99,North,5,0.0,4.0,81,0.00,,---,0.01,VWS V13.01,2013-09-04 01:02:00,
2013-09-03 21:07:00,63.3,57.4,29.99,North,355,0.0,5.0,81,0.00,,---,0.01,VWS V13.01,2013-09-04 01:07:00,
2013-09-03 21:12:00,63.3,57.4,29.99,NNW,335,1.0,4.0,81,0.00,,---,0.01,VWS V13.01,2013-09-04 01:12:00,
2013-09-03 21:17:00,63.2,57.3,30.00,NNW,340,3.0,4.0,81,0.00,,---,0.01,VWS V13.01,2013-09-04 01:17:00,
2013-09-03 21:22:00,63.2,57.3,30.00,NNW,339,0.0,2.0,81,0.00,,---,0.01,VWS V13.01,2013-09-04 01:22:00,
2013-09-03 21:27:00,63.2,57.3,30.00,WNW,299,1.0,4.0,81,0.00,,---,0.01,VWS V13.01,2013-09-04 01:27:00,
2013-09-03 21:32:00,63.1,57.5,30.00,NW,307,1.0,3.0,82,0.00,,---,0.01,VWS V13.01,2013-09-04 01:32:00,
2013-09-03 21:37:00,63.1,57.2,30.00,WNW,303,0.0,5.0,81,0.00,,---,0.01,VWS V13.01,2013-09-04 01:37:00,
2013-09-03 21:42:00,63.1,57.2,30.00,WNW,298,0.0,3.0,81,0.00,,---,0.01,VWS V13.01,2013-09-04 01:42:00,
2013-09-03 21:47:00,63.0,57.1,30.00,NNW,331,3.0,4.0,81,0.00,,---,0.01,VWS V13.01,2013-09-04 01:47:00,
2013-09-03 21:52:00,63.0,57.4,30.00,NW,307,2.0,2.0,82,0.00,,---,0.01,VWS V13.01,2013-09-04 01:52:00,
2013-09-03 21:57:00,62.9,57.0,30.00,NNW,330,0.0,5.0,81,0.00,,---,0.01,VWS V13.01,2013-09-04 01:57:00,
2013-09-03 22:02:00,62.9,57.3,30.00,NNW,337,0.0,2.0,82,0.00,,---,0.01,VWS V13.01,2013-09-04 02:02:00,
2013-09-03 22:07:00,62.7,57.1,30.00,NNW,334,0.0,3.0,82,0.00,,---,0.01,VWS V13.01,2013-09-04 02:07:00,
2013-09-03 22:12:00,62.6,57.0,30.00,NNW,345,2.0,3.0,82,0.00,,---,0.01,VWS V13.01,2013-09-04 02:12:00,
2013-09-03 22:17:00,62.5,56.9,30.00,North,349,0.0,4.0,82,0.00,,---,0.01,VWS V13.01,2013-09-04 02:17:00,
2013-09-03 22:22:00,62.3,57.1,30.01,NNW,344,1.0,2.0,83,0.00,,---,0.01,VWS V13.01,2013-09-04 02:22:00,
2013-09-03 22:27:00,62.2,57.0,30.00,North,5,2.0,5.0,83,0.00,,---,0.01,VWS V13.01,2013-09-04 02:27:00,
2013-09-03 22:32:00,62.1,56.9,30.01,North,355,1.0,5.0,83,0.00,,---,0.01,VWS V13.01,2013-09-04 02:32:00,
2013-09-03 22:37:00,62.0,56.8,30.00,NNE,12,0.0,5.0,83,0.00,,---,0.01,VWS V13.01,2013-09-04 02:37:00,
2013-09-03 22:42:00,62.0,57.1,30.00,NNE,13,0.0,3.0,84,0.00,,---,0.01,VWS V13.01,2013-09-04 02:42:00,
2013-09-03 22:47:00,62.0,56.8,30.01,NNW,333,0.0,3.0,83,0.00,,---,0.01,VWS V13.01,2013-09-04 02:47:00,
2013-09-03 22:52:00,62.0,56.8,30.01,NW,308,0.0,2.0,83,0.00,,---,0.01,VWS V13.01,2013-09-04 02:52:00,
2013-09-03 22:57:00,62.0,56.8,30.01,WNW,290,0.0,3.0,83,0.00,,---,0.01,VWS V13.01,2013-09-04 02:57:00,
2013-09-03 23:02:00,62.0,56.8,30.00,WNW,290,1.0,3.0,83,0.00,,---,0.01,VWS V13.01,2013-09-04 03:02:00,
2013-09-03 23:07:00,62.0,56.8,30.00,WNW,290,2.0,3.0,83,0.00,,---,0.01,VWS V13.01,2013-09-04 03:07:00,
2013-09-03 23:12:00,62.0,56.8,30.01,NW,316,0.0,1.0,83,0.00,,---,0.01,VWS V13.01,2013-09-04 03:12:00,
2013-09-03 23:17:00,62.0,56.8,30.01,NW,325,0.0,3.0,83,0.00,,---,0.01,VWS V13.01,2013-09-04 03:17:00,
2013-09-03 23:22:00,61.9,57.0,30.01,NW,320,0.0,2.0,84,0.00,,---,0.01,VWS V13.01,2013-09-04 03:22:00,
2013-09-03 23:27:00,61.8,56.9,30.01,WNW,299,0.0,2.0,84,0.00,,---,0.01,VWS V13.01,2013-09-04 03:27:00,
2013-09-03 23:32:00,61.6,56.7,30.01,WNW,299,0.0,0.0,84,0.00,,---,0.01,VWS V13.01,2013-09-04 03:32:00,
2013-09-03 23:37:00,61.4,56.5,30.01,WNW,299,0.0,1.0,84,0.00,,---,0.01,VWS V13.01,2013-09-04 03:37:00,
2013-09-03 23:42:00,61.3,56.4,30.01,WNW,299,0.0,0.0,84,0.00,,---,0.01,VWS V13.01,2013-09-04 03:42:00,
2013-09-03 23:47:00,61.1,56.2,30.01,WNW,299,0.0,0.0,84,0.00,,---,0.01,VWS V13.01,2013-09-04 03:47:00,
2013-09-03 23:52:00,60.7,56.2,30.01,WNW,299,0.0,0.0,85,0.00,,---,0.01,VWS V13.01,2013-09-04 03:52:00,
2013-09-03 23:57:00,60.4,56.2,30.01,WNW,299,0.0,2.0,86,0.00,,---,0.01,VWS V13.01,2013-09-04 03:57:00,